FW8079 Weather Reports


Display with metric or nautical units.
time (UTC)temp
F
wind
direction
speed
MPH
gust
MPH
rain 1hr
in
rain 24hr
in
rain mn
in
humidity
%
barometer
mb
20260505011011 63 54 2.0 2.0 0.00 0.00 0.00 75 1007.6
20260505010507 63 57 2.0 2.0 0.00 0.00 0.00 76 1007.3
20260505010004 63 39 0.0 1.0 0.00 0.00 0.00 75 1007.3
20260505005500 63 353 0.0 2.0 0.00 0.00 0.00 75 1007.3
20260505004958 64 23 0.0 2.0 0.00 0.00 0.00 75 1007.4
20260505004454 64 168 0.0 3.0 0.00 0.00 0.00 74 1007.4
20260505003951 64 56 1.0 3.0 0.00 0.00 0.00 74 1007.7
20260505003448 64 88 1.0 2.0 0.00 0.00 0.00 75 1007.3
20260505002944 64 58 1.0 3.0 0.00 0.00 0.00 75 1007.3
20260505002441 64 56 2.0 2.0 0.00 0.00 0.00 76 1007.5
20260505001939 64 66 2.0 3.0 0.00 0.00 0.00 76 1007.5
20260505001436 64 103 2.0 2.0 0.00 0.00 0.00 75 1007.4
20260505000933 64 56 2.0 2.0 0.00 0.00 0.00 75 1007.3
20260505000432 64 100 2.0 3.0 0.00 0.00 0.00 74 1007.2
20260504235928 64 92 1.0 2.0 0.00 0.00 0.00 74 1007.3
20260504235425 65 76 2.0 2.0 0.00 0.00 0.00 74 1007.4
20260504234921 65 105 2.0 2.0 0.00 0.00 0.00 74 1007.3
20260504234419 65 101 2.0 2.0 0.00 0.00 0.00 74 1007.2
20260504233915 65 43 0.0 2.0 0.00 0.00 0.00 74 1007.3
20260504233411 66 89 2.0 3.0 0.00 0.00 0.00 73 1007.2
20260504232908 66 57 2.0 3.0 0.00 0.00 0.00 72 1006.9
20260504232405 66 75 2.0 4.0 0.00 0.00 0.00 72 1007.0
20260504231902 66 77 2.0 3.0 0.00 0.00 0.00 71 1007.2
20260504231358 67 154 2.0 3.0 0.00 0.00 0.00 70 1007.2
20260504230855 66 111 4.0 4.0 0.00 0.00 0.00 71 1007.2
20260504230352 66 126 2.0 4.0 0.00 0.00 0.00 71 1007.2
20260504225851 66 129 1.0 4.0 0.00 0.00 0.00 70 1007.1
20260504225347 66 181 4.0 4.0 0.00 0.00 0.00 70 1007.3
20260504224845 66 103 4.0 6.0 0.00 0.00 0.00 69 1007.1
20260504224341 66 115 1.0 6.0 0.00 0.00 0.00 69 1007.4
20260504223838 67 105 2.0 4.0 0.00 0.00 0.00 68 1007.3
20260504223333 67 204 4.0 8.0 0.00 0.00 0.00 66 1007.1
20260504222830 67 34 2.0 8.0 0.00 0.00 0.00 65 1007.0
20260504222327 66 58 4.0 10.0 0.00 0.00 0.00 65 1007.2
20260504221826 67 114 6.0 8.0 0.00 0.00 0.00 65 1007.3
20260504221322 67 122 2.0 9.0 0.00 0.00 0.00 64 1007.3
20260504220819 67 166 2.0 6.0 0.00 0.00 0.00 62 1007.5
20260504220316 67 161 6.0 14.0 0.00 0.00 0.00 59 1007.2
20260504215813 68 127 2.0 13.0 0.00 0.00 0.00 55 1007.2
20260504215309 68 147 4.0 7.0 0.00 0.00 0.00 54 1007.4
20260504214805 68 115 8.0 12.0 0.00 0.00 0.00 53 1007.3
20260504214303 69 147 2.0 7.0 0.00 0.00 0.00 54 1007.1
20260504213759 69 355 2.0 4.0 0.00 0.00 0.00 55 1007.3
20260504213255 69 132 7.0 11.0 0.00 0.00 0.00 55 1007.2
20260504212753 69 122 2.0 7.0 0.00 0.00 0.00 55 1007.4
20260504212249 69 103 4.0 5.0 0.00 0.00 0.00 55 1007.2
20260504211746 69 9 0.0 5.0 0.00 0.00 0.00 54 1007.4
20260504211242 69 114 6.0 9.0 0.00 0.00 0.00 55 1007.3
20260504210740 69 107 7.0 8.0 0.00 0.00 0.00 55 1007.3
20260504210237 69 83 4.0 11.0 0.00 0.00 0.00 56 1007.4
20260504205734 69 132 3.0 6.0 0.00 0.00 0.00 55 1007.4
20260504205232 69 111 10.0 10.0 0.00 0.00 0.00 56 1007.4
20260504204729 69 119 4.0 8.0 0.00 0.00 0.00 56 1007.4
20260504204227 69 112 3.0 6.0 0.00 0.00 0.00 55 1007.3
20260504203727 69 77 1.0 10.0 0.00 0.00 0.00 54 1007.6
20260504203223 69 122 2.0 9.0 0.00 0.00 0.00 55 1007.6
20260504202718 69 63 3.0 11.0 0.00 0.00 0.00 54 1007.6
20260504202215 69 239 7.0 10.0 0.00 0.00 0.00 52 1007.7
20260504201712 69 112 5.0 6.0 0.00 0.00 0.00 51 1007.7
20260504201210 70 113 2.0 9.0 0.00 0.00 0.00 51 1007.8
20260504200707 70 115 6.0 11.0 0.00 0.00 0.00 51 1007.8
20260504200203 70 145 3.0 11.0 0.00 0.00 0.00 49 1008.0
20260504195659 70 98 5.0 6.0 0.00 0.00 0.00 51 1008.1
20260504195155 71 126 5.0 6.0 0.00 0.00 0.00 49 1008.1
20260504194653 71 104 7.0 8.0 0.00 0.00 0.00 48 1007.9
20260504194148 71 150 2.0 7.0 0.00 0.00 0.00 49 1007.9
20260504193645 71 180 1.0 6.0 0.00 0.00 0.00 50 1008.2
20260504193143 73 114 6.0 8.0 0.00 0.00 0.00 47 1008.3
20260504192641 72 115 9.0 14.0 0.00 0.00 0.00 48 1008.3
20260504192139 72 142 2.0 5.0 0.00 0.00 0.00 47 1008.3
20260504191637 72 111 2.0 9.0 0.00 0.00 0.00 46 1008.3
20260504191133 73 134 5.0 8.0 0.00 0.00 0.00 45 1008.7
20260504190629 73 152 3.0 8.0 0.00 0.00 0.00 45 1008.6
20260504190126 73 143 3.0 8.0 0.00 0.00 0.00 46 1008.8
20260504185622 73 117 5.0 6.0 0.00 0.00 0.00 44 1008.5
20260504185119 73 125 6.0 10.0 0.00 0.00 0.00 44 1008.7
20260504184614 72 106 2.0 5.0 0.00 0.00 0.00 45 1008.9
20260504184110 73 87 3.0 5.0 0.00 0.00 0.00 45 1009.0
20260504183607 72 110 6.0 7.0 0.00 0.00 0.00 46 1009.0
20260504183105 71 110 6.0 6.0 0.00 0.00 0.00 46 1009.0
20260504182602 71 116 4.0 9.0 0.00 0.00 0.00 45 1009.1
20260504182059 70 122 5.0 11.0 0.00 0.00 0.00 46 1009.2
20260504181556 71 113 6.0 6.0 0.00 0.00 0.00 43 1009.4
20260504181054 70 137 4.0 8.0 0.00 0.00 0.00 44 1009.2
20260504180553 70 115 5.0 8.0 0.00 0.00 0.00 44 1009.4
20260504180052 69 109 9.0 10.0 0.00 0.00 0.00 44 1009.4
20260504175548 70 111 5.0 7.0 0.00 0.00 0.00 45 1009.4
20260504175045 70 104 5.0 11.0 0.00 0.00 0.00 44 1009.7
20260504174543 70 144 3.0 9.0 0.00 0.00 0.00 44 1009.7
20260504174040 71 122 3.0 5.0 0.00 0.00 0.00 41 1009.6
20260504173536 70 188 4.0 6.0 0.00 0.00 0.00 40 1009.7
20260504173034 70 119 2.0 5.0 0.00 0.00 0.00 45 1009.9
20260504172530 70 113 4.0 6.0 0.00 0.00 0.00 45 1009.9
20260504172027 70 130 2.0 6.0 0.00 0.00 0.00 43 1009.9
20260504171524 70 83 2.0 6.0 0.00 0.00 0.00 47 1010.0
20260504171021 69 118 5.0 6.0 0.00 0.00 0.00 47 1009.9
20260504170516 69 108 6.0 8.0 0.00 0.00 0.00 45 1009.9
20260504160437 68 122 2.0 9.0 0.00 0.00 0.00 47 1010.7
20260504150900 67 174 2.0 6.0 0.00 0.00 0.00 40 1010.9
20260504150357 67 135 0.0 3.0 0.00 0.00 0.00 42 1011.1
20260504141327 63 324 2.0 4.0 0.00 0.00 0.00 53 1011.7
20260504140823 63 131 0.0 4.0 0.00 0.00 0.00 50 1011.6
20260504140319 62 0 2.0 3.0 0.00 0.00 0.00 50 1011.4
20260504130748 59 66 3.0 3.0 0.00 0.00 0.00 55 1011.8
20260504130244 59 290 3.0 10.0 0.00 0.00 0.00 56 1011.8
20260504120208 56 82 3.0 3.0 0.00 0.00 0.00 60 1012.0
20260504110635 53 28 0.0 4.0 0.00 0.00 0.00 63 1012.5
20260504110131 53 269 0.0 3.0 0.00 0.00 0.00 63 1012.4
20260504100551 53 141 2.0 6.0 0.00 0.00 0.00 68 1012.5
20260504081945 54 11 0.0 3.0 0.00 0.00 0.00 64 1012.6
20260504081442 54 20 1.0 3.0 0.00 0.00 0.00 64 1012.5
20260504080938 54 94 1.0 2.0 0.00 0.00 0.00 63 1012.5
20260504080435 54 345 1.0 2.0 0.00 0.00 0.00 64 1012.7
20260504070403 52 331 0.0 2.0 0.00 0.00 0.00 65 1012.9
20260504050749 48 66 0.0 2.0 0.00 0.00 0.00 73 1013.0
20260504050247 48 359 1.0 1.0 0.00 0.00 0.00 73 1012.9
20260504045739 48 32 0.0 1.0 0.00 0.00 0.00 73 1012.8
20260504045233 48 55 0.0 1.0 0.00 0.00 0.00 73 1012.8
20260504044731 48 26 0.0 1.0 0.00 0.00 0.00 73 1013.1
20260504044228 48 56 1.0 1.0 0.00 0.00 0.00 72 1013.0
20260504043725 48 99 0.0 2.0 0.00 0.00 0.00 72 1012.9
20260504043222 48 46 0.0 2.0 0.00 0.00 0.00 71 1012.8
20260504042720 48 70 0.0 2.0 0.00 0.00 0.00 70 1012.8
20260504042216 47 81 1.0 2.0 0.00 0.00 0.00 72 1012.9
20260504041712 46 52 0.0 1.0 0.00 0.00 0.00 74 1012.8
20260504041208 46 52 0.0 1.0 0.00 0.00 0.00 75 1012.9
20260504040705 46 39 0.0 1.0 0.00 0.00 0.00 74 1012.9
20260504040202 46 66 0.0 2.0 0.00 0.00 0.00 75 1013.0
20260504035658 46 32 0.0 1.0 0.00 0.00 0.00 76 1012.8
20260504035156 46 89 0.0 1.0 0.00 0.00 0.00 77 1013.0
20260504034653 46 70 2.0 2.0 0.00 0.00 0.00 78 1012.7
20260504034150 46 100 0.0 2.0 0.00 0.00 0.00 79 1012.7
20260504033648 45 101 0.0 2.0 0.00 0.00 0.00 80 1012.7
20260504033145 45 44 0.0 2.0 0.00 0.00 0.00 79 1012.5
20260504032641 45 49 1.0 1.0 0.00 0.00 0.00 80 1012.8
20260504032139 46 1 0.0 1.0 0.00 0.00 0.00 80 1012.8
20260504031636 46 32 0.0 2.0 0.00 0.00 0.00 81 1012.5
20260504031132 46 32 0.0 1.0 0.00 0.00 0.00 82 1012.4
20260504030629 46 345 0.0 1.0 0.00 0.00 0.00 82 1012.6
20260504030125 47 22 0.0 1.0 0.00 0.00 0.00 81 1012.5
20260504025622 47 47 0.0 1.0 0.00 0.00 0.00 80 1012.6
20260504025119 48 55 0.0 1.0 0.00 0.00 0.00 80 1012.4
20260504024616 47 57 0.0 1.0 0.00 0.00 0.00 79 1012.6
20260504024113 48 323 1.0 1.0 0.00 0.00 0.00 79 1012.4
20260504023609 48 113 0.0 1.0 0.00 0.00 0.00 77 1012.5
20260504023105 48 44 0.0 1.0 0.00 0.00 0.00 75 1012.4
20260504022602 48 57 0.0 1.0 0.00 0.00 0.00 74 1012.5
20260504022058 48 335 0.0 1.0 0.00 0.00 0.00 77 1012.5
20260504021556 48 299 1.0 2.0 0.00 0.00 0.00 75 1012.4
20260504021052 48 32 0.0 1.0 0.00 0.00 0.00 76 1012.4
20260504020549 48 54 0.0 1.0 0.00 0.00 0.00 75 1012.4
20260504020046 49 352 0.0 1.0 0.00 0.00 0.00 75 1012.4
20260504015542 49 126 0.0 1.0 0.00 0.00 0.00 74 1012.5
20260504015038 49 113 0.0 1.0 0.00 0.00 0.00 75 1012.3
20260504014535 49 317 1.0 1.0 0.00 0.00 0.00 74 1012.3
20260504014032 49 38 0.0 1.0 0.00 0.00 0.00 73 1012.4
20260504013529 49 208 0.0 1.0 0.00 0.00 0.00 72 1012.2
20260504013026 49 41 1.0 1.0 0.00 0.00 0.00 68 1012.2
20260504012524 50 339 0.0 1.0 0.00 0.00 0.00 69 1012.0
20260504012022 50 28 1.0 1.0 0.00 0.00 0.00 67 1012.1
20260504011518 50 32 0.0 1.0 0.00 0.00 0.00 67 1011.9